FW6148 Weather Reports


time (UTC)temp
F
wind
direction
speed
knots
gust
knots
rain 1hr
in
rain 24hr
in
rain mn
in
humidity
%
barometer
mb
20260502162029 69 360 6.1 13.0 0.00 0.00 0.00 28 1015.9
20260502161544 68 360 7.0 13.9 0.00 0.00 0.00 28 1015.7
20260502161029 68 360 7.8 13.9 0.00 0.00 0.00 28 1015.8
20260502160530 68 360 4.3 11.3 0.00 0.00 0.00 28 1015.7
20260502152028 66 360 3.5 7.0 0.00 0.00 0.00 35 1015.9
20260502151544 65 360 2.6 7.0 0.00 0.00 0.00 36 1016.0
20260502151027 64 360 1.7 4.3 0.00 0.00 0.00 37 1016.0
20260502150527 64 360 1.7 3.5 0.00 0.00 0.00 35 1016.0
20260502130532 39 360 2.6 4.3 0.00 0.00 0.00 61 1016.3
20260502123527 35 360 0.9 3.5 0.00 0.00 0.00 66 1016.1
20260502123043 36 360 1.7 3.5 0.00 0.00 0.00 65 1016.2
20260502122527 36 360 0.9 3.5 0.00 0.00 0.00 63 1016.2
20260502122028 37 360 1.7 3.5 0.00 0.00 0.00 61 1016.2
20260502121538 37 360 1.7 3.5 0.00 0.00 0.00 60 1016.0
20260502121028 37 360 1.7 3.5 0.00 0.00 0.00 61 1016.2
20260502120529 36 360 1.7 3.5 0.00 0.00 0.00 62 1016.3
20260502115527 35 360 0.9 3.5 0.00 0.00 0.00 63 1016.1
20260502115027 35 360 1.7 3.5 0.00 0.00 0.00 64 1016.2
20260502114629 36 360 0.9 2.6 0.00 0.00 0.00 63 1016.1
20260502114024 36 0 0.0 4.3 0.00 0.00 0.00 63 1016.1
20260502113529 36 360 0.9 4.3 0.00 0.00 0.00 63 1016.1
20260502113044 37 360 1.7 4.3 0.00 0.00 0.00 62 1016.0
20260502112527 38 360 0.9 4.3 0.00 0.00 0.00 59 1016.1
20260502112030 39 360 1.7 4.3 0.00 0.00 0.00 58 1016.1
20260502111539 39 360 2.6 3.5 0.00 0.00 0.00 56 1016.1
20260502111028 39 360 0.9 3.5 0.00 0.00 0.00 56 1016.1
20260502110528 40 360 0.9 3.5 0.00 0.00 0.00 56 1016.3
20260502110041 41 360 1.7 3.5 0.00 0.00 0.00 54 1016.3
20260502105527 41 360 0.9 3.5 0.00 0.00 0.00 54 1016.3
20260502105027 42 0 0.0 5.2 0.00 0.00 0.00 55 1016.3
20260502104539 43 360 2.6 5.2 0.00 0.00 0.00 51 1016.3
20260502104024 43 360 0.0 4.3 0.00 0.00 0.00 51 1016.3
20260502103524 42 360 1.7 3.5 0.00 0.00 0.00 51 1016.3
20260502103037 42 360 0.9 2.6 0.00 0.00 0.00 53 1016.4
20260502102527 42 0 0.9 7.8 0.00 0.00 0.00 51 1016.4
20260502102027 43 360 0.9 7.8 0.00 0.00 0.00 52 1016.4
20260502101600 43 360 3.5 7.8 0.00 0.00 0.00 51 1016.4
20260502101028 43 360 1.7 4.3 0.00 0.00 0.00 53 1016.4
20260502100528 43 360 1.7 7.0 0.00 0.00 0.00 51 1016.5
20260502091029 38 0 0.9 1.7 0.00 0.00 0.00 66 1016.7
20260502090528 38 0 0.0 1.7 0.00 0.00 0.00 64 1016.7
20260502071028 38 360 1.7 3.5 0.00 0.00 0.00 67 1018.0
20260502070528 38 360 0.9 2.6 0.00 0.00 0.00 67 1018.0
20260502070046 38 0 0.9 2.6 0.00 0.00 0.00 67 1018.1
20260502065525 38 360 0.9 2.6 0.00 0.00 0.00 67 1018.0
20260502065027 38 0 0.0 3.5 0.00 0.00 0.00 67 1018.1
20260502064605 38 360 1.7 4.3 0.00 0.00 0.00 67 1018.1
20260502064028 39 360 1.7 4.3 0.00 0.00 0.00 66 1018.1
20260502063527 39 360 2.6 4.3 0.00 0.00 0.00 67 1018.1
20260502063040 39 360 1.7 2.6 0.00 0.00 0.00 67 1018.2
20260502062525 38 360 1.7 3.5 0.00 0.00 0.00 67 1018.3
20260502062027 38 360 0.9 4.3 0.00 0.00 0.00 67 1018.1
20260502061536 38 360 2.6 4.3 0.00 0.00 0.00 66 1018.2
20260502061028 39 360 2.6 4.3 0.00 0.00 0.00 67 1018.1
20260502060527 38 360 2.6 4.3 0.00 0.00 0.00 67 1018.0
20260502060047 38 360 2.6 4.3 0.00 0.00 0.00 67 1018.1
20260502055528 38 360 1.7 3.5 0.00 0.00 0.00 67 1018.1
20260502055028 39 360 1.7 4.3 0.00 0.00 0.00 66 1018.2
20260502054539 39 360 1.7 4.3 0.00 0.00 0.00 67 1018.2
20260502054027 39 360 1.7 3.5 0.00 0.00 0.00 66 1018.3
20260502053531 39 360 1.7 3.5 0.00 0.00 0.00 65 1018.3
20260502053040 40 360 1.7 4.3 0.00 0.00 0.00 65 1018.1
20260502052527 39 360 1.7 4.3 0.00 0.00 0.00 66 1018.3
20260502052028 38 360 2.6 5.2 0.00 0.00 0.00 67 1018.4
20260502051539 38 360 1.7 5.2 0.00 0.00 0.00 68 1018.3
20260502051028 37 360 1.7 5.2 0.00 0.00 0.00 69 1018.4
20260502050527 37 360 1.7 2.6 0.00 0.00 0.00 68 1018.3
20260502050039 37 360 0.9 2.6 0.00 0.00 0.00 68 1018.4
20260502045527 37 360 1.7 3.5 0.00 0.00 0.00 69 1018.4
20260502045027 37 360 1.7 3.5 0.00 0.00 0.00 69 1018.4
20260502044542 37 360 1.7 3.5 0.00 0.00 0.00 68 1018.4
20260502044027 37 360 0.9 2.6 0.00 0.00 0.00 69 1018.4
20260502043529 37 360 0.9 2.6 0.00 0.00 0.00 69 1018.4
20260502043107 37 360 1.7 2.6 0.00 0.00 0.00 70 1018.5
20260502042528 37 360 0.9 2.6 0.00 0.00 0.00 71 1018.5
20260502042028 37 360 1.7 3.5 0.00 0.00 0.00 71 1018.6
20260502041545 37 360 1.7 3.5 0.00 0.00 0.00 69 1018.6
20260502041027 37 360 2.6 4.3 0.00 0.00 0.00 70 1018.6
20260502040531 37 0 1.7 4.3 0.00 0.00 0.00 68 1018.6
20260502040039 38 360 1.7 3.5 0.00 0.00 0.00 66 1018.4
20260502035527 39 360 1.7 3.5 0.00 0.00 0.00 66 1018.5
20260502035028 39 360 1.7 3.5 0.00 0.00 0.00 66 1018.5
20260502034538 39 360 1.7 3.5 0.00 0.00 0.00 67 1018.5
20260502034024 38 360 1.7 3.5 0.00 0.00 0.00 67 1018.6
20260502033527 39 360 0.9 2.6 0.00 0.00 0.00 67 1018.5
20260502033043 39 360 1.7 2.6 0.00 0.00 0.00 66 1018.4
20260502032528 38 360 0.9 2.6 0.00 0.00 0.00 68 1018.4
20260502032027 39 360 0.0 2.6 0.00 0.00 0.00 67 1018.5
20260502031540 39 360 1.7 2.6 0.00 0.00 0.00 65 1018.4
20260502031028 40 0 0.0 1.7 0.00 0.00 0.00 65 1018.4
20260502030528 41 360 0.0 3.5 0.00 0.00 0.00 62 1018.3
20260502030046 43 360 0.9 3.5 0.00 0.00 0.00 59 1018.1
20260502025527 44 360 1.7 3.5 0.00 0.00 0.00 58 1018.2
20260502025029 44 360 1.7 3.5 0.00 0.00 0.00 58 1018.1
20260502024537 44 360 2.6 3.5 0.00 0.00 0.00 59 1017.9
20260502024027 44 360 1.7 3.5 0.00 0.00 0.00 60 1018.0
20260502023527 44 360 2.6 3.5 0.00 0.00 0.00 60 1017.9
20260502023104 44 360 1.7 2.6 0.00 0.00 0.00 61 1017.9
20260502022528 45 360 0.9 2.6 0.00 0.00 0.00 60 1017.9
20260502022030 46 360 0.9 2.6 0.00 0.00 0.00 60 1017.8
20260502021543 48 360 0.9 3.5 0.00 0.00 0.00 58 1017.8
20260502021027 50 360 1.7 3.5 0.00 0.00 0.00 52 1017.8
20260502020530 52 360 1.7 3.5 0.00 0.00 0.00 48 1017.8
20260502020041 54 360 0.0 1.7 0.00 0.00 0.00 44 1017.7
20260502015527 56 0 0.0 0.0 0.00 0.00 0.00 42 1017.5
20260502015028 57 0 0.0 0.0 0.00 0.00 0.00 43 1017.6
20260502014541 58 0 0.0 1.7 0.00 0.00 0.00 41 1017.6
20260502014028 59 0 0.0 1.7 0.00 0.00 0.00 39 1017.5
20260502013527 59 0 0.9 1.7 0.00 0.00 0.00 38 1017.5
20260502013042 59 0 0.0 2.6 0.00 0.00 0.00 37 1017.6
20260502012527 59 360 0.0 2.6 0.00 0.00 0.00 40 1017.6
20260502012030 59 360 0.9 3.5 0.00 0.00 0.00 39 1017.5
20260502011537 60 360 0.9 3.5 0.00 0.00 0.00 40 1017.4
20260502011028 61 360 1.7 3.5 0.00 0.00 0.00 37 1017.5
20260502010527 61 360 1.7 7.8 0.00 0.00 0.00 38 1017.5
20260502010036 62 360 1.7 7.8 0.00 0.00 0.00 36 1017.5
20260502005527 63 360 1.7 7.0 0.00 0.00 0.00 33 1017.4
20260502005024 63 360 3.5 9.6 0.00 0.00 0.00 31 1017.3
20260502004544 63 360 2.6 9.6 0.00 0.00 0.00 35 1017.4
20260502004026 63 360 6.1 9.6 0.00 0.00 0.00 29 1017.3
20260502003523 63 360 4.3 9.6 0.00 0.00 0.00 29 1017.3
20260502003039 63 360 4.3 9.6 0.00 0.00 0.00 28 1017.3
20260502002527 63 360 6.1 9.6 0.00 0.00 0.00 29 1017.4
20260502002024 63 360 4.3 8.7 0.00 0.00 0.00 30 1017.4
20260502001539 63 360 2.6 9.6 0.00 0.00 0.00 31 1017.3
20260502001028 63 360 4.3 12.2 0.00 0.00 0.00 31 1017.4
20260502000528 64 360 4.3 15.6 0.00 0.00 0.00 27 1017.4
20260502000038 64 360 7.8 15.6 0.00 0.00 0.00 30 1017.4
20260501235528 64 360 4.3 11.3 0.00 0.00 0.00 31 1017.3
20260501235028 64 360 6.1 14.8 0.00 0.00 0.00 31 1017.3
20260501234539 64 360 7.0 14.8 0.00 0.00 0.00 31 1017.3
20260501234028 64 360 7.8 14.8 0.00 0.00 0.00 30 1017.3
20260501233528 64 360 7.0 11.3 0.00 0.00 0.00 29 1017.3
20260501233037 64 360 5.2 11.3 0.00 0.00 0.00 30 1017.3
20260501232524 64 360 4.3 11.3 0.00 0.00 0.00 30 1017.3
20260501232030 64 360 6.1 13.9 0.00 0.00 0.00 30 1017.4
20260501231540 64 360 6.1 13.9 0.00 0.00 0.00 32 1017.3
20260501231027 64 360 8.7 18.2 0.00 0.00 0.00 32 1017.4
20260501230528 64 360 8.7 18.2 0.00 0.00 0.00 30 1017.4
20260501230039 64 360 4.3 9.6 0.00 0.00 0.00 33 1017.4
20260501225528 64 360 4.3 13.0 0.00 0.00 0.00 32 1017.4
20260501225028 64 360 7.8 14.8 0.00 0.00 0.00 32 1017.4
20260501224540 64 360 6.1 14.8 0.00 0.00 0.00 32 1017.5
20260501224027 64 360 9.6 14.8 0.00 0.00 0.00 30 1017.4
20260501223527 64 360 8.7 13.9 0.00 0.00 0.00 32 1017.4
20260501223038 64 360 6.1 13.9 0.00 0.00 0.00 32 1017.4
20260501222529 64 360 7.8 13.9 0.00 0.00 0.00 31 1017.3
20260501222025 64 360 6.1 16.5 0.00 0.00 0.00 35 1017.3
20260501221543 64 360 10.4 16.5 0.00 0.00 0.00 32 1017.4
20260501221032 63 360 5.2 13.9 0.00 0.00 0.00 31 1017.5
20260501220528 64 360 5.2 14.8 0.00 0.00 0.00 34 1017.5
20260501220041 64 360 8.7 14.8 0.00 0.00 0.00 32 1017.5
20260501215527 64 360 10.4 14.8 0.00 0.00 0.00 33 1017.5
20260501215029 64 360 8.7 16.5 0.00 0.00 0.00 30 1017.5
20260501214539 64 360 7.8 16.5 0.00 0.00 0.00 31 1017.5
20260501214027 64 360 5.2 16.5 0.00 0.00 0.00 34 1017.6
20260501213527 64 360 7.8 16.5 0.00 0.00 0.00 30 1017.5
20260501213038 64 360 11.3 16.5 0.00 0.00 0.00 31 1017.7
20260501212527 64 360 7.0 15.6 0.00 0.00 0.00 34 1017.6
20260501212027 64 360 7.0 15.6 0.00 0.00 0.00 35 1017.6
20260501211541 64 360 9.6 20.9 0.00 0.00 0.00 32 1017.6
20260501211028 64 360 7.8 20.9 0.00 0.00 0.00 36 1017.6
20260501210529 64 360 7.0 13.9 0.00 0.00 0.00 34 1017.7
20260501210044 64 360 6.1 12.2 0.00 0.00 0.00 37 1017.6
20260501205527 64 360 7.8 16.5 0.00 0.00 0.00 34 1017.7
20260501205027 63 360 8.7 16.5 0.00 0.00 0.00 35 1017.9
20260501204552 63 360 7.8 16.5 0.00 0.00 0.00 33 1017.8
20260501204026 64 360 8.7 15.6 0.00 0.00 0.00 36 1017.8
20260501203527 63 360 5.2 13.9 0.00 0.00 0.00 37 1017.6
20260501203041 63 360 8.7 13.9 0.00 0.00 0.00 35 1017.8
20260501202528 63 360 7.8 14.8 0.00 0.00 0.00 32 1017.9
20260501202027 64 360 8.7 14.8 0.00 0.00 0.00 34 1017.8
20260501201544 64 360 7.0 14.8 0.00 0.00 0.00 36 1017.7
20260501201027 63 360 6.1 14.8 0.00 0.00 0.00 34 1017.8
20260501200527 63 360 8.7 15.6 0.00 0.00 0.00 35 1017.8
20260501200038 63 360 7.8 15.6 0.00 0.00 0.00 34 1017.8
20260501195530 63 360 7.8 14.8 0.00 0.00 0.00 35 1017.9
20260501195024 63 360 7.0 14.8 0.00 0.00 0.00 36 1017.8
20260501194544 63 360 7.8 17.4 0.00 0.00 0.00 34 1017.9
20260501194026 62 360 10.4 17.4 0.00 0.00 0.00 37 1017.9
20260501193527 61 360 8.7 17.4 0.00 0.00 0.00 31 1017.9
20260501193036 62 360 8.7 16.5 0.00 0.00 0.00 35 1017.9
20260501192527 63 360 8.7 14.8 0.00 0.00 0.00 36 1017.9
20260501192027 63 360 7.8 13.9 0.00 0.00 0.00 38 1017.9
20260501191544 63 360 8.7 17.4 0.00 0.00 0.00 36 1018.0
20260501191027 63 360 7.8 17.4 0.00 0.00 0.00 35 1017.9
20260501190527 62 360 7.8 20.9 0.00 0.00 0.00 36 1018.0
20260501190044 62 360 9.6 20.9 0.00 0.00 0.00 37 1017.9
20260501185523 62 360 10.4 20.0 0.00 0.00 0.00 39 1017.9
20260501185027 62 360 8.7 18.2 0.00 0.00 0.00 37 1018.1
20260501184546 62 360 8.7 16.5 0.00 0.00 0.00 37 1018.0
20260501184028 62 360 8.7 16.5 0.00 0.00 0.00 36 1018.0
20260501183531 63 360 9.6 16.5 0.00 0.00 0.00 37 1017.9
20260501183045 62 360 7.0 16.5 0.00 0.00 0.00 36 1018.1
20260501182531 62 360 7.8 15.6 0.00 0.00 0.00 37 1017.9
20260501182030 62 360 8.7 19.1 0.00 0.00 0.00 36 1018.0
20260501181538 61 360 7.8 19.1 0.00 0.00 0.00 33 1018.1
20260501181027 62 360 10.4 19.1 0.00 0.00 0.00 33 1018.1
20260501180527 62 360 10.4 19.1 0.00 0.00 0.00 35 1018.1
20260501180037 62 360 7.0 19.1 0.00 0.00 0.00 37 1018.1
20260501175527 61 360 7.8 20.0 0.00 0.00 0.00 36 1018.1
20260501175023 61 360 7.8 20.0 0.00 0.00 0.00 36 1018.1
20260501174542 61 360 8.7 18.2 0.00 0.00 0.00 34 1018.2
20260501174026 61 360 8.7 17.4 0.00 0.00 0.00 35 1018.2
20260501173526 61 360 7.8 20.0 0.00 0.00 0.00 39 1018.1
20260501173046 60 360 9.6 20.0 0.00 0.00 0.00 35 1018.2
20260501172528 60 360 8.7 18.2 0.00 0.00 0.00 36 1018.1
20260501172029 61 360 7.8 19.1 0.00 0.00 0.00 37 1018.2
20260501171549 61 360 8.7 19.1 0.00 0.00 0.00 36 1018.2
20260501171027 61 360 7.8 16.5 0.00 0.00 0.00 38 1018.3
20260501170527 60 360 8.7 16.5 0.00 0.00 0.00 39 1018.2
20260501170039 60 360 8.7 18.2 0.00 0.00 0.00 36 1018.2
20260501165527 60 360 9.6 19.1 0.00 0.00 0.00 37 1018.2
20260501165027 60 360 11.3 19.1 0.00 0.00 0.00 36 1018.2
20260501164544 60 360 6.1 16.5 0.00 0.00 0.00 40 1018.1
20260501164026 59 360 7.8 16.5 0.00 0.00 0.00 38 1018.1
20260501163527 59 360 9.6 17.4 0.00 0.00 0.00 42 1018.2
20260501163041 59 360 7.8 17.4 0.00 0.00 0.00 42 1018.1
20260501162526 59 360 8.7 17.4 0.00 0.00 0.00 40 1018.1